sat.trackr.live / text

‹ back to catalog

QIANFAN-23

NORAD 61556 · 2024-185E

PAYLOAD ACTIVE UNKNOWN

§ Identity

Operator
Country
PRC
Launch date
2024-10-15
Launch site
TAISC
Launch vehicle
Mass (kg)
RCS (m²)

External: N2YO · Heavens-Above · Gunter

§ Orbital elements

Epoch: 2026-05-25T04:16:39.712224Z

Period
101.66 min
Inclination
88.9843°
Eccentricity
0.0008744
Mean motion
14.16482159 rev/d
Perigee alt
831.0 km
Apogee alt
843.6 km
Semi-major
7,215.4 km
B*
2.2542e-4
RAAN
58.9329°
Arg perigee
134.4784°
Mean anomaly
225.7121°
Rev number
9,288

§ Raw data

QIANFAN-231 61556U 24185E   26145.17823741  .00000463  00000+0  22542-3 0  99942 61556  88.9843  58.9329 0008744 134.4784 225.7121 14.16482159 92883

JSON: /api/v1/satellites/61556 · /tle

For live sub-satellite position, see the globe view (requires WebGL).

§ Visibility from observer

Set your observer location to see the next 7 days of passes ≥ 10°. The values pass through the URL so the page stays shareable.

No JS? Fill the form by hand. The geolocation button needs JavaScript.